TimeEST,TemperatureF,Dew PointF,Humidity,Sea Level PressureIn,VisibilityMPH,Wind Direction,Wind SpeedMPH,Gust SpeedMPH,PrecipitationIn,Events,Conditions,WindDirDegrees,DateUTC
12:15 AM,26.6,10.4,51,29.97,10.0,WSW,6.9,-,N/A,,Overcast,250,2013-02-05 05:15:00
12:35 AM,26.6,10.4,51,29.96,10.0,WSW,8.1,-,N/A,,Overcast,240,2013-02-05 05:35:00
12:55 AM,26.6,10.4,51,29.97,10.0,West,8.1,-,N/A,,Overcast,260,2013-02-05 05:55:00
1:15 AM,26.6,10.4,51,29.98,10.0,West,8.1,-,N/A,,Overcast,260,2013-02-05 06:15:00
1:35 AM,26.6,10.4,51,29.98,10.0,West,6.9,-,N/A,,Overcast,260,2013-02-05 06:35:00
1:55 AM,26.6,10.4,51,29.98,10.0,West,5.8,-,N/A,,Overcast,280,2013-02-05 06:55:00
2:15 AM,26.6,10.4,51,29.98,10.0,West,4.6,-,N/A,,Mostly Cloudy,280,2013-02-05 07:15:00
2:35 AM,26.6,10.4,51,29.98,10.0,West,5.8,-,N/A,,Clear,270,2013-02-05 07:35:00
2:55 AM,26.6,10.4,51,29.98,10.0,West,4.6,-,N/A,,Partly Cloudy,270,2013-02-05 07:55:00
3:15 AM,26.6,10.4,51,29.99,10.0,WSW,3.5,-,N/A,,Mostly Cloudy,240,2013-02-05 08:15:00
3:35 AM,26.6,10.4,51,29.99,10.0,Calm,Calm,-,N/A,,Scattered Clouds,0,2013-02-05 08:35:00
3:55 AM,26.6,10.4,51,29.99,10.0,Calm,Calm,-,N/A,,Scattered Clouds,0,2013-02-05 08:55:00
4:15 AM,24.8,10.4,54,29.99,10.0,Calm,Calm,-,N/A,,Partly Cloudy,0,2013-02-05 09:15:00
4:55 AM,26.6,12.2,55,30.00,10.0,Calm,Calm,-,N/A,,Clear,0,2013-02-05 09:55:00
5:15 AM,24.8,12.2,59,30.00,10.0,Calm,Calm,-,N/A,,Clear,0,2013-02-05 10:15:00
5:35 AM,24.8,14.0,64,30.00,10.0,Calm,Calm,-,N/A,,Clear,0,2013-02-05 10:35:00
5:55 AM,24.8,14.0,64,30.00,10.0,Calm,Calm,-,N/A,,Clear,0,2013-02-05 10:55:00
6:15 AM,24.8,14.0,64,30.00,10.0,Calm,Calm,-,N/A,,Clear,0,2013-02-05 11:15:00
7:15 AM,26.6,14.0,59,30.02,10.0,Calm,Calm,-,N/A,,Clear,0,2013-02-05 12:15:00
7:35 AM,24.8,15.8,69,30.02,10.0,Calm,Calm,-,N/A,,Clear,0,2013-02-05 12:35:00
7:55 AM,26.6,17.6,69,30.03,10.0,Calm,Calm,-,N/A,,Clear,0,2013-02-05 12:55:00
8:15 AM,26.6,14.0,59,30.04,10.0,Calm,Calm,-,N/A,,Scattered Clouds,0,2013-02-05 13:15:00
8:35 AM,26.6,12.2,55,30.04,10.0,Calm,Calm,-,N/A,,Scattered Clouds,0,2013-02-05 13:35:00
8:55 AM,26.6,12.2,55,30.04,10.0,West,3.5,-,N/A,,Clear,270,2013-02-05 13:55:00
9:15 AM,28.4,12.2,51,30.04,10.0,WNW,5.8,-,N/A,,Clear,300,2013-02-05 14:15:00
9:35 AM,28.4,12.2,51,30.04,10.0,West,3.5,-,N/A,,Clear,280,2013-02-05 14:35:00
9:55 AM,28.4,12.2,51,30.04,10.0,Calm,Calm,-,N/A,,Mostly Cloudy,0,2013-02-05 14:55:00
10:15 AM,28.4,12.2,51,30.05,10.0,Calm,Calm,-,N/A,,Mostly Cloudy,0,2013-02-05 15:15:00
10:35 AM,28.4,12.2,51,30.05,10.0,NW,5.8,-,N/A,,Partly Cloudy,310,2013-02-05 15:35:00
10:55 AM,28.4,12.2,51,30.04,10.0,NW,3.5,-,N/A,,Clear,320,2013-02-05 15:55:00
11:15 AM,28.4,14.0,55,30.04,10.0,NW,3.5,-,N/A,,Partly Cloudy,320,2013-02-05 16:15:00
11:35 AM,28.4,14.0,55,30.03,10.0,Calm,Calm,-,N/A,,Partly Cloudy,0,2013-02-05 16:35:00
11:55 AM,28.4,14.0,55,30.03,10.0,Calm,Calm,-,N/A,,Clear,0,2013-02-05 16:55:00
12:15 PM,28.4,14.0,55,30.02,10.0,Calm,Calm,-,N/A,,Mostly Cloudy,0,2013-02-05 17:15:00
12:35 PM,28.4,15.8,59,30.02,10.0,Calm,Calm,-,N/A,,Overcast,0,2013-02-05 17:35:00
12:55 PM,28.4,15.8,59,30.01,10.0,Calm,Calm,-,N/A,,Overcast,0,2013-02-05 17:55:00
1:15 PM,28.4,15.8,59,30.01,10.0,North,3.5,-,N/A,,Overcast,10,2013-02-05 18:15:00
1:35 PM,28.4,17.6,64,30.00,10.0,Calm,Calm,-,N/A,,Overcast,0,2013-02-05 18:35:00
1:55 PM,28.4,17.6,64,30.00,10.0,NE,4.6,-,N/A,,Overcast,50,2013-02-05 18:55:00
2:15 PM,28.4,19.4,69,30.00,10.0,ENE,3.5,-,N/A,,Overcast,70,2013-02-05 19:15:00
2:35 PM,28.4,19.4,69,30.00,10.0,ENE,3.5,-,N/A,,Overcast,70,2013-02-05 19:35:00
2:55 PM,28.4,19.4,69,30.00,10.0,East,4.6,-,N/A,,Overcast,90,2013-02-05 19:55:00
3:15 PM,30.2,19.4,64,29.99,10.0,ESE,4.6,-,N/A,,Overcast,110,2013-02-05 20:15:00
3:35 PM,30.2,19.4,64,29.98,10.0,East,5.8,-,N/A,,Overcast,100,2013-02-05 20:35:00
3:55 PM,30.2,19.4,64,29.97,10.0,East,5.8,-,N/A,,Overcast,90,2013-02-05 20:55:00
4:15 PM,30.2,19.4,64,29.97,10.0,East,4.6,-,N/A,,Overcast,100,2013-02-05 21:15:00
4:35 PM,30.2,19.4,64,29.97,10.0,East,6.9,-,N/A,,Overcast,100,2013-02-05 21:35:00
4:55 PM,30.2,19.4,64,29.97,10.0,East,3.5,-,N/A,,Overcast,90,2013-02-05 21:55:00
5:15 PM,30.2,19.4,64,29.98,10.0,East,3.5,-,N/A,,Overcast,100,2013-02-05 22:15:00
5:35 PM,30.2,19.4,64,29.97,10.0,East,3.5,-,N/A,,Overcast,100,2013-02-05 22:35:00
5:55 PM,30.2,21.2,69,29.97,10.0,Calm,Calm,-,N/A,,Mostly Cloudy,0,2013-02-05 22:55:00
6:15 PM,30.2,21.2,69,29.97,10.0,East,3.5,-,N/A,,Mostly Cloudy,100,2013-02-05 23:15:00
6:35 PM,30.2,21.2,69,29.98,10.0,East,3.5,-,N/A,,Mostly Cloudy,90,2013-02-05 23:35:00
6:55 PM,30.2,23.0,75,29.98,7.0,Calm,Calm,-,N/A,Rain,Freezing Rain,0,2013-02-05 23:55:00
7:15 PM,30.2,26.6,86,29.98,2.0,Calm,Calm,-,N/A,Snow,Light Snow,0,2013-02-06 00:15:00
7:35 PM,30.2,26.6,86,29.97,2.0,Calm,Calm,-,N/A,Snow,Light Snow,0,2013-02-06 00:35:00
7:55 PM,30.2,28.4,93,29.96,2.5,Calm,Calm,-,N/A,Snow,Light Snow,0,2013-02-06 00:55:00
8:15 PM,30.2,28.4,93,29.97,1.8,East,4.6,-,N/A,Snow,Light Snow,80,2013-02-06 01:15:00
8:35 PM,30.2,28.4,93,29.97,2.0,East,3.5,-,N/A,Snow,Light Snow,80,2013-02-06 01:35:00
8:55 PM,30.2,28.4,93,29.97,2.5,ENE,3.5,-,N/A,Snow,Light Snow,70,2013-02-06 01:55:00
9:15 PM,30.2,28.4,93,29.97,4.0,Calm,Calm,-,N/A,Rain,Freezing Rain,0,2013-02-06 02:15:00
9:35 PM,30.2,28.4,93,29.97,10.0,Calm,Calm,-,N/A,Snow,Light Snow,0,2013-02-06 02:35:00
9:55 PM,30.2,28.4,93,29.97,5.0,Calm,Calm,-,N/A,Snow,Light Snow,0,2013-02-06 02:55:00
10:15 PM,30.2,28.4,93,29.96,9.0,Calm,Calm,-,N/A,Rain,Freezing Rain,0,2013-02-06 03:15:00
10:35 PM,32.0,28.4,87,29.95,10.0,NNE,3.5,-,N/A,,Mostly Cloudy,30,2013-02-06 03:35:00
10:55 PM,32.0,30.2,93,29.94,10.0,NNE,3.5,-,N/A,,Overcast,20,2013-02-06 03:55:00
11:15 PM,32.0,30.2,93,29.95,9.0,North,3.5,-,N/A,,Light Drizzle,10,2013-02-06 04:15:00
11:35 PM,32.0,30.2,93,29.94,9.0,North,3.5,-,N/A,,Overcast,360,2013-02-06 04:35:00
11:55 PM,32.0,30.2,93,29.94,10.0,NNW,3.5,-,N/A,Rain,Light Rain,330,2013-02-06 04:55:00